www.pogodaiklimat.ru

Погода и климат >> Архив погоды >> Монголия >> Цэцэрлэг


ПОГОДА в Цэцэрлэге

  • Прогноз погоды в Цэцэрлэге
  • Монитор погоды в Цэцэрлэге

АРХИВ ПОГОДЫ в Цэцэрлэге

Время (UTC), дата Ветер
(напр.,м/с)
 
Видим.   Явления Облачность Т
(С)
Тd
(С)
f
(%)
Тe
(С)
Тes
(С)
Комфортность P
(гПа)
Po
(гПа)
Тmin
(С)
Tmax
(С)
R
(мм)
R24
(мм)
S
(см)
06 12.06 ЮЗ 4 50 км 8/5 600 м
[Cu med, cong Ci fib]
+18.7 +0.5 29 +19 +24 1012.5 830.7
09 12.06 З 2 50 км 9/9 600 м
[Cb calv]
+19.8 +0.4 27 +21 +21 комфорт 1010.5 829.6
12 12.06 Ю 4 50 км 9/9 600 м
[Cb calv]
+17.9 +3.4 38 +18 +18 1012.0 829.8 +20.4
15 12.06 СЗ 2 50 км 1/0
[Ac lent]
+13.2 +5.3 59 +13 +13 1015.9 830.3
18 12.06 СЗ 1 50 км 4/0
[Ac lent]
+9.9 +3.9 66 +10 +10 1018.2 830.2
21 12.06 С 3 50 км 6/0
[Ac lent Ci fib]
+8.2 +4.6 78 +6 +6 1018.8 829.7
00 13.06 З 1 50 км 9/6 600 м
[Sc Ac lent Ci fib]
+14.0 +5.7 57 +15 +16 1014.5 829.7 +8.2
03 13.06 ЮЗ 3 50 км 9/6 600 м
[Cu med, cong Ci]
+20.0 +4.7 37 +21 +25 комфорт 1009.0 828.5
06 13.06 ЮЗ 3 50 км гроза без осадков 10/10 600 м
[Cb cap]
+23.2 +3.8 28 +23 +23 комфорт 1004.9 826.9
09 13.06 З 2
{19}
50 км {гроза, ливн. осадки} 9/9 600 м
[Cb calv]
+21.2 +5.2 35 +22 +23 комфорт 1005.7 826.5
12 13.06 ЮЗ 2 50 км {гроза, ливн. осадки} 9/8 600 м
[Cb calv Ac lent]
+19.9 +7.4 44 +21 +21 комфорт 1005.9 825.9 +24.0 2
15 13.06 С 2 50 км 10/10 600 м
[Sc]
+16.7 +9.3 62 +17 +17 1008.6 826.3
18 13.06 З 1 50 км {дождь} 9/9 600 м
[Sc]
+15.6 +8.5 63 +16 +16 1008.0 825.2
21 13.06 СЗ 2 50 км 9/0
[Ac As]
+13.1 +8.2 72 +12 +12 1008.0 823.8
00 14.06 ЮЗ 1 50 км 10/10 600 м
[Sc]
+14.1 +10.0 76 +14 +14 1006.9 823.5 +12.6 0.0
03 14.06 ЮЗ 2 20 км осадки на расстоянии 10/10
[Sc]
+18.6 +5.1 41 +19 +19 1003.2 823.1
06 14.06 ЮЗ 5 50 км 9/9 600 м
[Sc]
+20.9 +0.7 26 +21 +22 комфорт 999.4 821.2
09 14.06 ЮЗ 4
{14}
20 км осадки на расстоянии {метель} 10/10 600 м
[Sc]
+19.5 +0.3 28 +20 +20 1000.3 821.2
12 14.06 СЗ 2 4000 м дождь {метель} 10/10 600 м
[Sc]
+12.7 +10.1 84 +12 +12 1006.4 822.3 +21.2 1
15 14.06 штиль 0 н/о слаб. дождь 10/0 300 м
[As op]
+11.6 +10.8 95 +11 +11 1006.5 821.7
18 14.06 З 2 н/о слаб. дождь 10/0 300 м
[As op]
+10.9 +9.6 92 +9 +9 1005.3 820.3
21 14.06 ЮЗ 2 50 км {дождь} 6/6 600 м
[Sc]
+9.9 +8.9 93 +8 +8 1004.9 819.4
00 15.06 СЗ 4 50 км {дождь} 8/0
[Ac As]
+12.8 +8.7 76 +11 +12 1002.8 819.4 +9.6 4
03 15.06 СЗ 3 50 км 8/8 600 м
[Sc]
+16.1 +7.1 55 +16 +18 1000.0 819.0
06 15.06 ЮЗ 6 50 км {ливн. осадки} 9/9 600 м
[Cb calv]
+14.3 +8.8 69 +12 +13 1000.4 818.3
09 15.06 ЮЗ 8 50 км 9/9 600 м
[Sc]
+14.4 +6.2 58 +12 +12 999.9 818.0
12 15.06 З 2 50 км {ливн. осадки} 9/9 600 м
[Cb cap]
+11.6 +6.7 72 +11 +11 1003.4 819.2 +16.1 0.1
15 15.06 ЮЗ 2 н/о слаб. дождь 10/10 600 м
[Sc]
+10.5 +8.6 88 +9 +9 1005.0 819.8
18 15.06 штиль 0 н/о слаб. дождь 10/0 300 м
[As op]
+9.6 +8.2 91 +9 +9 1004.9 819.2
21 15.06 ЮЗ 4 50 км {дождь} 10/10 600 м
[Sc]
+9.3 +7.8 90 +6 +6 1004.8 818.9
00 16.06 СЗ 2 20 км слаб. дождь 10/10 600 м
[Sc]
+10.6 +8.0 84 +9 +9 1004.8 819.6 +9.2 2
03 16.06 СЗ 4 50 км в посл. час дождь 9/9 600 м
[Sc]
+12.9 +8.9 77 +11 +12 1003.9 820.4
06 16.06 СЗ 5 50 км {дождь} 8/6 600 м
[Cb calv Ci fib]
+16.0 +9.3 64 +15 +18 1001.6 820.3
09 16.06 СЗ 4 50 км 8/8 600 м
[Cb calv]
+17.1 +6.0 48 +17 +18 1001.1 820.5
12 16.06 З 2 50 км 9/9 600 м
[Cb calv Ci]
+14.2 +8.6 69 +14 +14 1004.7 821.7 +17.2 1
15 16.06 З 2 50 км 9/9 600 м
[Sc]
+12.2 +8.5 78 +11 +11 1008.4 823.6
18 16.06 СЗ 3 50 км {дождь} 9/9 1000 м
[Sc]
+11.0 +7.9 81 +9 +9 1008.7 823.2
21 16.06 штиль 0 50 км 6/0
[Ac cast]
+7.8 +6.5 91 +7 +7 1011.8 823.8
00 17.06 штиль 0 50 км 6/1 1000 м
[Cu hum Ac lent]
+14.6 +9.6 72 +14 +17 1007.6 824.3 +7.3 0.9
03 17.06 СЗ 2 50 км 6/6 1000 м
[Cu med, cong]
+17.9 +8.1 53 +18 +24 1005.6 824.6
06 17.06 СЗ 2 50 км 5/5 1000 м
[Cu med, cong]
+21.3 +4.7 34 +22 +31 комфорт 1003.1 824.4
09 17.06 З 2 50 км 4/3 1000 м
[Cu med, cong Ci fib]
+22.6 +2.3 26 +22 +28 комфорт 1000.9 823.3
12 17.06 З 4 50 км 3/1 1000 м
[Cu med, cong Ci]
+20.9 +5.2 36 +22 +22 комфорт 1002.8 824.0 +23.3
15 17.06 ЮЗ 1 50 км 9/9 600 м
[Sc]
+16.9 +7.2 53 +18 +18 1007.6 825.7
18 17.06 З 4
{17}
50 км в посл. час гроза {ливн. осадки} 9/8 600 м
[Sc Ac lent]
+13.5 +7.4 67 +12 +12 1013.1 828.2
21 17.06 З 1 50 км 4/0
[Ac lent]
+10.1 +7.4 83 +10 +10 1015.7 828.3
00 18.06 штиль 0 50 км 5/1 1000 м
[Cu hum Ac trans]
+14.9 +8.6 66 +15 +18 1012.9 828.8 +9.7 0.0
03 18.06 ЮЗ 3 50 км 3/3 1000 м
[Cu med, cong]
+19.3 +9.8 54 +20 +29 1009.9 829.0
06 18.06 З 4 50 км 9/9 600 м
[Cb calv]
+19.9 +8.1 46 +21 +22 комфорт 1008.8 828.3
09 18.06 ЮЗ 6 50 км 9/9 600 м
[Cb cap]
+20.6 +7.3 42 +21 +22 комфорт 1007.8 827.9
12 18.06 З 2 50 км в посл. час ливневой дождь 9/9 600 м
[Cb calv]
+17.9 +9.5 58 +18 +19 1010.5 828.6 +21.7 0.7
15 18.06 ЮЗ 1 50 км 9/9 600 м
[Sc]
+14.8 +10.5 75 +15 +15 1013.6 829.4
18 18.06 З 2 50 км 5/0
[Ac lent Ci]
+11.4 +8.5 82 +10 +10 1015.1 828.6
21 18.06 З 1 50 км 6/0
[Ac lent]
+10.5 +7.7 83 +10 +10 1016.3 829.0
00 19.06 З 1 50 км 4/0
[Ac trans Ci]
+15.9 +9.3 65 +17 +20 1012.9 829.4 +9.9
03 19.06 ЮЗ 2 50 км 9/3 1000 м
[Cu med, cong Cs]
+20.2 +7.6 44 +22 +30 комфорт 1009.5 829.0

 

Местоположение метеостанции Цэцэрлэг (Монголия): широта 47.45 долгота 101.46 высота над уровнем моря 1691 м.

В архиве по умолчанию представлена погода в Цэцэрлэге за последнюю неделю. Архивные данные за месяц целиком и за предыдущие месяцы, начиная с января 2011 года, Вы можете получить, выбрав интересующий диапазон дат из раскрывающегося списка и нажав кнопку "Ввод!".


*Определитесь, кто Вы:
робот инопланетянин человек

Внимание! Время в таблицах - всемирное. Для получения местного времени необходимо прибавить поправку, которая равна 8 ч.

Смотрите также архив погоды в соседних городах и на ближайших метеорологических станциях:

Погода в Хужирте (Монголия) (116 км)
Погода в Эрдэнэмандале (Монголия) (120 км)
Погода в Галууте (Монголия) (131 км)
Погода в Баянхонгоре (Монголия) (158 км)
Погода в Тариате (Монголия) (159 км)
Погода в Арвайхээре (Монголия) (165 км)
Погода в Бат Олжий Вунд (Монголия) (185 км)
Погода в Булгане (Монголия) (216 км)
Погода в Хутаге (Монголия) (233 км)
Погода ву Тариалане (Монголия) (239 км)

Пояснения к столбцам:

Ветер - указаны скорость ветра в м/с - средняя за 10 мин, порывы в срок и между сроками (в фигурных скобках) и направление, откуда дует ветер: С - северный, СВ - северо-восточный, В - восточный, ЮВ - юго-восточный, Ю - южный, ЮЗ - юго-западный, З - западный, СЗ - северо-западный.
Видимость - горизонтальная дальность видимости в метрах или километрах. При видимости от 1 до 10 км при отсутствии осадков обычно наблюдается дымка, при ухудшении видимости до 1 км и менее - туман. В сухую погоду видимость может ухудшаться дымом, пылью или мглою.
Явления - указаны атмосферные явления, наблюдавшиеся в срок или в последний час перед сроком; фигурными скобками обозначены явления, наблюдавшиеся между сроками (за 1-3 часа до срока); квадратными скобками обозначены град или гололедные отложения с указанием их диаметра в мм.
Облачность - указаны через наклонную черту общая и нижняя облачность в баллах и высота нижней границы облаков в метрах; квадратными скобками обозначены формы облаков: Ci - перистые, Cs - перисто-слоистые, Cc - перисто-кучевые, Ac - высококучевые, As - высокослоистые, Sc - слоисто-кучевые, Ns - слоисто-дождевые, Cu - кучевые, Cb - кучево-дождевые. Подробнее классификацию облаков см. в Атласе облаков (PDF).
T - Температура воздуха - температура, измеренная на высоте 2 м над землей.
Td - Температура точки росы - температура, при понижении до которой содержащийся в воздухе водяной пар достигнет насыщения.
f - Относительная влажность воздуха - влажноcть воздуха, измеренная на высоте 2 м над землей.
Te - Эффективная температура - температура, которую ощущает одетый по сезону человек в тени. Характеристика душности погоды. При расчете учитывается влияние влажности воздуха и скорости ветра на теплоощущения человека.
Tes - Эффективная температура на солнце - температура, которую ощущает человек, с поправкой на солнечный нагрев. Характеристика знойности погоды. Зависит от высоты солнца над горизонтом, облачности и скорости ветра. Ночью, в пасмурную погоду, а также при ветре 12 м/с и более поправка равна нулю.
P - Атмосферное давление - приведенное к уровню моря атмосферное давление.
Po - Атмосферное давление - измеренное на уровне метеостанции атмосферное давление.
Tmin - Минимальная температура - минимум температуры воздуха на высоте 2 м над землей.
Tmax - Максимальная температура - максимум температуры воздуха на высоте 2 м над землей.
R - Количество осадков - Количество выпавших осадков за период времени, мм. При наведении курсора мыши на число - период времени, за который выпало указанное количество осадков.
R24 - Количество осадков - Количество выпавших осадков за 24 часа, мм.
S - Снежный покров - Высота снежного покрова, см. При наведении курсора мыши на число - состояние снежного покрова и степень покрытия местности в баллах.